Location: Basse Occidentale du Courleau
(48.3833°N, 4.8333°W)
Time: 18:25:59
(UTC+00:00)

ATLAS CENTAUR R/B - Pass Details

Date: 05 July 2020
Orbit: 475 x 672 km, 64.7° (Epoch: 13 July)

Event Time Altitude Azimuth Distance (km) Brightness Sun altitude
Rises 21:49:59 0° 322° (NW) 2,581 7.0 -11.0°
Reaches altitude 10° 21:52:10 10° 325° (NW) 1,677 5.4 -11.2°
Maximum altitude 21:55:53 72° 50° (NE) 507 1.1 -11.6°
Enters shadow 21:58:26 18° 133° (SE) 1,212 2.5 -11.8°
